User: anonymous   Login
Location: Unspecified
(0.0000°N, 0.0000°E)
Time: 21:25:18
(UTC+00:00)
Language:

Diademe D-1D - Orbit

View from above orbital plane
View from above orbital plane
View from above satellite
View from above satellite

Ground track
Ground track

The orbit data is extracted from the following two-line orbital elements,

1 02680U 67014A   18051.87328226 -.00000006  00000-0  37229-4 0  9991
2 02680  39.4375 245.7798 0714823  60.2368 306.7531 13.37870265469119
Epoch (UTC): 20 February 2018 20:57:31
Eccentricity: 0.0714823
inclination: 39.4375°
perigee height: 581 km
apogee height: 1653 km
right ascension of ascending node: 245.7798°
argument of perigee: 60.2368°
revolutions per day: 13.37870265
mean anomaly at epoch: 306.7531°
orbit number at epoch: 46911

The dashed part of the orbit path shows where the satellite is in the earth's shadow,  

DLR